Time,TemperatureF,DewpointF,PressureIn,WindDirection,WindDirectionDegrees,WindSpeedMPH,WindSpeedGustMPH,Humidity,HourlyPrecipIn,Conditions,Clouds,dailyrainin,SoftwareType,DateUTC
2013-06-23 00:01:00,73.4,65.3,29.29,SSW,200,0.0,0.0,76,0.08,,,0.00,Weather View 32 v70,2013-06-23 04:01:00,
2013-06-23 00:06:00,73.4,65.7,29.29,SSW,200,0.0,0.0,77,0.08,,,0.00,Weather View 32 v70,2013-06-23 04:06:00,
2013-06-23 00:11:00,73.2,65.5,29.29,SSW,200,0.0,0.0,77,0.08,,,0.00,Weather View 32 v70,2013-06-23 04:11:00,
2013-06-23 00:16:00,73.2,65.5,29.29,SSW,200,0.0,0.0,77,0.08,,,0.00,Weather View 32 v70,2013-06-23 04:16:00,
2013-06-23 00:21:00,73.2,65.9,29.29,SSW,200,0.0,0.0,78,0.08,,,0.00,Weather View 32 v70,2013-06-23 04:21:00,
2013-06-23 00:26:00,73.0,65.7,29.29,SSW,200,0.0,0.0,78,0.08,,,0.00,Weather View 32 v70,2013-06-23 04:26:00,
2013-06-23 00:31:00,72.9,65.9,29.29,SSW,200,0.0,0.0,79,0.08,,,0.00,Weather View 32 v70,2013-06-23 04:31:00,
2013-06-23 00:36:00,72.9,66.3,29.29,SSW,200,0.0,0.0,80,0.08,,,0.00,Weather View 32 v70,2013-06-23 04:36:00,
2013-06-23 00:41:00,72.9,66.3,29.29,SSW,200,0.0,0.0,80,0.00,,,0.00,Weather View 32 v70,2013-06-23 04:41:00,
2013-06-23 00:46:00,72.9,66.7,29.29,SSW,200,0.0,0.0,81,0.00,,,0.00,Weather View 32 v70,2013-06-23 04:46:00,
2013-06-23 00:51:00,72.9,66.7,29.29,SSW,200,0.0,0.0,81,0.00,,,0.00,Weather View 32 v70,2013-06-23 04:51:00,
2013-06-23 00:56:00,72.9,66.3,29.29,SSW,200,0.0,0.0,80,0.00,,,0.00,Weather View 32 v70,2013-06-23 04:56:00,
2013-06-23 01:01:00,72.9,66.3,29.29,SSW,200,0.0,0.0,80,0.00,,,0.00,Weather View 32 v70,2013-06-23 05:01:00,
2013-06-23 01:06:00,72.9,66.3,29.29,SSW,200,0.0,0.0,80,0.00,,,0.00,Weather View 32 v70,2013-06-23 05:06:00,
2013-06-23 01:11:00,72.9,66.3,29.29,SSW,200,0.0,0.0,80,0.00,,,0.00,Weather View 32 v70,2013-06-23 05:11:00,
2013-06-23 01:16:00,72.7,66.5,29.29,SSW,200,0.0,0.0,81,0.00,,,0.00,Weather View 32 v70,2013-06-23 05:16:00,
2013-06-23 01:21:00,72.7,66.5,29.29,SSW,200,0.0,0.0,81,0.00,,,0.00,Weather View 32 v70,2013-06-23 05:21:00,
2013-06-23 01:26:00,72.5,66.7,29.29,SSW,200,0.0,0.0,82,0.00,,,0.00,Weather View 32 v70,2013-06-23 05:26:00,
2013-06-23 01:31:00,72.5,66.7,29.29,SSW,200,0.0,0.0,82,0.00,,,0.00,Weather View 32 v70,2013-06-23 05:31:00,
2013-06-23 01:36:00,72.5,66.7,29.29,SSW,200,0.0,0.0,82,0.00,,,0.00,Weather View 32 v70,2013-06-23 05:36:00,
2013-06-23 01:41:00,72.3,66.5,29.29,SSW,200,0.0,0.0,82,0.00,,,0.00,Weather View 32 v70,2013-06-23 05:41:00,
2013-06-23 01:46:00,72.3,66.8,29.29,SSW,200,0.0,0.0,83,0.00,,,0.00,Weather View 32 v70,2013-06-23 05:46:00,
2013-06-23 01:51:00,72.3,66.5,29.29,SSW,200,0.0,0.0,82,0.00,,,0.00,Weather View 32 v70,2013-06-23 05:51:00,
2013-06-23 01:56:00,72.3,66.5,29.29,SSW,200,0.0,0.0,82,0.00,,,0.00,Weather View 32 v70,2013-06-23 05:56:00,
2013-06-23 02:01:00,72.1,66.7,29.29,SSW,200,0.0,0.0,83,0.00,,,0.00,Weather View 32 v70,2013-06-23 06:01:00,
2013-06-23 02:06:00,72.1,66.7,29.26,SSW,200,0.0,0.0,83,0.00,,,0.00,Weather View 32 v70,2013-06-23 06:06:00,
2013-06-23 02:11:00,72.1,66.7,29.26,SSW,200,0.0,0.0,83,0.00,,,0.00,Weather View 32 v70,2013-06-23 06:11:00,
2013-06-23 02:16:00,72.1,66.7,29.26,SSW,200,0.0,0.0,83,0.00,,,0.00,Weather View 32 v70,2013-06-23 06:16:00,
2013-06-23 02:21:00,72.1,66.7,29.26,SSW,200,0.0,0.0,83,0.00,,,0.00,Weather View 32 v70,2013-06-23 06:21:00,
2013-06-23 02:26:00,72.1,66.7,29.26,SSW,200,0.0,0.0,83,0.00,,,0.00,Weather View 32 v70,2013-06-23 06:26:00,
2013-06-23 02:31:00,72.1,66.7,29.26,SSW,200,0.0,0.0,83,0.00,,,0.00,Weather View 32 v70,2013-06-23 06:31:00,
2013-06-23 02:36:00,72.1,66.7,29.26,SSW,200,0.0,0.0,83,0.00,,,0.00,Weather View 32 v70,2013-06-23 06:36:00,
2013-06-23 02:41:00,72.1,66.7,29.26,SSW,200,0.0,0.0,83,0.00,,,0.00,Weather View 32 v70,2013-06-23 06:41:00,
2013-06-23 02:46:00,72.1,66.7,29.26,SSW,200,0.0,0.0,83,0.00,,,0.00,Weather View 32 v70,2013-06-23 06:46:00,
2013-06-23 02:51:00,72.3,66.8,29.29,SSW,200,0.0,0.0,83,0.00,,,0.00,Weather View 32 v70,2013-06-23 06:51:00,
2013-06-23 02:56:00,72.3,66.8,29.29,SSW,200,0.0,0.0,83,0.00,,,0.00,Weather View 32 v70,2013-06-23 06:56:00,
2013-06-23 03:01:00,72.3,66.8,29.29,SSW,200,0.0,0.0,83,0.00,,,0.00,Weather View 32 v70,2013-06-23 07:01:00,
2013-06-23 03:06:00,72.3,66.8,29.26,SSW,200,0.0,0.0,83,0.00,,,0.00,Weather View 32 v70,2013-06-23 07:06:00,
2013-06-23 03:11:00,72.3,66.5,29.26,SSW,200,0.0,0.0,82,0.00,,,0.00,Weather View 32 v70,2013-06-23 07:11:00,
2013-06-23 03:16:00,72.3,66.5,29.26,SSW,200,0.0,0.0,82,0.00,,,0.00,Weather View 32 v70,2013-06-23 07:16:00,
2013-06-23 03:21:00,72.3,66.5,29.26,SSW,200,0.0,0.0,82,0.00,,,0.00,Weather View 32 v70,2013-06-23 07:21:00,
2013-06-23 03:26:00,72.3,66.5,29.26,SSW,200,0.0,0.0,82,0.00,,,0.00,Weather View 32 v70,2013-06-23 07:26:00,
2013-06-23 03:31:00,72.1,66.3,29.26,SSW,200,0.0,0.0,82,0.00,,,0.00,Weather View 32 v70,2013-06-23 07:31:00,
2013-06-23 03:36:00,72.1,66.3,29.26,SSW,200,0.0,0.0,82,0.00,,,0.00,Weather View 32 v70,2013-06-23 07:36:00,
2013-06-23 03:41:00,72.0,66.1,29.26,SSW,200,0.0,0.0,82,0.00,,,0.00,Weather View 32 v70,2013-06-23 07:41:00,
2013-06-23 03:46:00,72.0,66.1,29.26,SSW,200,0.0,0.0,82,0.00,,,0.00,Weather View 32 v70,2013-06-23 07:46:00,
2013-06-23 03:51:00,71.8,66.3,29.26,SSW,200,0.0,0.0,83,0.00,,,0.00,Weather View 32 v70,2013-06-23 07:51:00,
2013-06-23 03:56:00,71.8,66.3,29.26,SSW,200,0.0,0.0,83,0.00,,,0.00,Weather View 32 v70,2013-06-23 07:56:00,
2013-06-23 04:01:00,71.8,66.3,29.26,SSW,200,0.0,0.0,83,0.00,,,0.00,Weather View 32 v70,2013-06-23 08:01:00,
2013-06-23 04:06:00,71.8,66.3,29.26,SSW,200,0.0,0.0,83,0.00,,,0.00,Weather View 32 v70,2013-06-23 08:06:00,
2013-06-23 04:11:00,71.6,66.1,29.26,SSW,200,0.0,0.0,83,0.00,,,0.00,Weather View 32 v70,2013-06-23 08:11:00,
2013-06-23 04:16:00,71.6,66.5,29.26,SSW,200,0.0,0.0,84,0.00,,,0.00,Weather View 32 v70,2013-06-23 08:16:00,
2013-06-23 04:21:00,71.6,66.5,29.29,SSW,200,0.0,0.0,84,0.00,,,0.00,Weather View 32 v70,2013-06-23 08:21:00,
2013-06-23 04:26:00,71.4,66.3,29.29,SSW,200,0.0,0.0,84,0.00,,,0.00,Weather View 32 v70,2013-06-23 08:26:00,
2013-06-23 04:31:00,71.4,66.3,29.29,SW,215,0.0,0.0,84,0.00,,,0.00,Weather View 32 v70,2013-06-23 08:31:00,
2013-06-23 04:36:00,71.4,66.3,29.29,SW,215,0.0,0.0,84,0.00,,,0.00,Weather View 32 v70,2013-06-23 08:36:00,
2013-06-23 04:41:00,71.2,66.1,29.29,SSW,207,0.0,0.0,84,0.00,,,0.00,Weather View 32 v70,2013-06-23 08:41:00,
2013-06-23 04:46:00,71.2,66.1,29.29,SSE,150,0.0,0.0,84,0.00,,,0.00,Weather View 32 v70,2013-06-23 08:46:00,
2013-06-23 04:51:00,71.2,66.1,29.29,SSW,194,0.0,0.0,84,0.00,,,0.00,Weather View 32 v70,2013-06-23 08:51:00,
2013-06-23 04:56:00,71.1,66.0,29.29,South,183,0.0,0.0,84,0.00,,,0.00,Weather View 32 v70,2013-06-23 08:56:00,
2013-06-23 05:01:00,71.1,66.0,29.29,South,183,0.0,0.0,84,0.00,,,0.00,Weather View 32 v70,2013-06-23 09:01:00,
2013-06-23 05:06:00,70.9,65.8,29.29,South,183,0.0,0.0,84,0.00,,,0.00,Weather View 32 v70,2013-06-23 09:06:00,
2013-06-23 05:11:00,70.9,65.8,29.29,South,183,0.0,0.0,84,0.00,,,0.00,Weather View 32 v70,2013-06-23 09:11:00,
2013-06-23 05:16:00,70.9,65.8,29.29,South,183,0.0,0.0,84,0.00,,,0.00,Weather View 32 v70,2013-06-23 09:16:00,
2013-06-23 05:21:00,70.9,65.8,29.29,South,183,0.0,0.0,84,0.00,,,0.00,Weather View 32 v70,2013-06-23 09:21:00,
2013-06-23 05:26:00,70.7,66.0,29.29,South,183,0.0,0.0,85,0.00,,,0.00,Weather View 32 v70,2013-06-23 09:26:00,
2013-06-23 05:31:00,70.5,65.8,29.29,South,183,0.0,0.0,85,0.00,,,0.00,Weather View 32 v70,2013-06-23 09:31:00,
2013-06-23 05:36:00,70.5,65.8,29.29,South,183,0.0,0.0,85,0.00,,,0.00,Weather View 32 v70,2013-06-23 09:36:00,
2013-06-23 05:41:00,70.5,65.8,29.29,South,183,0.0,0.0,85,0.00,,,0.00,Weather View 32 v70,2013-06-23 09:41:00,
2013-06-23 05:46:00,70.3,65.6,29.29,South,183,0.0,0.0,85,0.00,,,0.00,Weather View 32 v70,2013-06-23 09:46:00,
2013-06-23 05:51:00,70.2,65.4,29.29,South,183,0.0,0.0,85,0.00,,,0.00,Weather View 32 v70,2013-06-23 09:51:00,
2013-06-23 05:56:00,70.0,65.2,29.29,South,183,0.0,0.0,85,0.00,,,0.00,Weather View 32 v70,2013-06-23 09:56:00,
2013-06-23 06:01:00,70.0,65.6,29.29,South,183,0.0,0.0,86,0.00,,,0.00,Weather View 32 v70,2013-06-23 10:01:00,
2013-06-23 06:06:00,70.0,65.6,29.29,South,183,0.0,0.0,86,0.00,,,0.00,Weather View 32 v70,2013-06-23 10:06:00,
2013-06-23 06:11:00,70.0,65.6,29.29,South,183,0.0,0.0,86,0.00,,,0.00,Weather View 32 v70,2013-06-23 10:11:00,
2013-06-23 06:16:00,69.8,65.4,29.29,South,183,0.0,0.0,86,0.00,,,0.00,Weather View 32 v70,2013-06-23 10:16:00,
2013-06-23 06:21:00,69.6,65.6,29.29,South,183,0.0,0.0,87,0.00,,,0.00,Weather View 32 v70,2013-06-23 10:21:00,
2013-06-23 06:26:00,69.6,65.9,29.29,South,183,0.0,0.0,88,0.00,,,0.00,Weather View 32 v70,2013-06-23 10:26:00,
2013-06-23 06:31:00,69.6,65.9,29.29,South,183,0.0,0.0,88,0.00,,,0.00,Weather View 32 v70,2013-06-23 10:31:00,
2013-06-23 06:36:00,69.4,65.7,29.29,South,183,0.0,0.0,88,0.00,,,0.00,Weather View 32 v70,2013-06-23 10:36:00,
2013-06-23 06:41:00,69.4,66.0,29.29,South,183,0.0,0.0,89,0.00,,,0.00,Weather View 32 v70,2013-06-23 10:41:00,
2013-06-23 06:46:00,69.4,66.0,29.29,South,183,0.0,0.0,89,0.00,,,0.00,Weather View 32 v70,2013-06-23 10:46:00,
2013-06-23 06:51:00,69.6,66.2,29.29,South,183,0.0,0.0,89,0.00,,,0.00,Weather View 32 v70,2013-06-23 10:51:00,
2013-06-23 06:56:00,69.6,66.2,29.29,South,183,0.0,0.0,89,0.00,,,0.00,Weather View 32 v70,2013-06-23 10:56:00,
2013-06-23 07:01:00,69.8,66.4,29.29,South,183,0.0,0.0,89,0.00,,,0.00,Weather View 32 v70,2013-06-23 11:01:00,
2013-06-23 07:06:00,69.8,66.4,29.29,South,183,0.0,0.0,89,0.00,,,0.00,Weather View 32 v70,2013-06-23 11:06:00,
2013-06-23 07:11:00,69.8,66.4,29.29,South,183,0.0,0.0,89,0.00,,,0.00,Weather View 32 v70,2013-06-23 11:11:00,
2013-06-23 07:16:00,70.0,66.6,29.29,South,183,0.0,0.0,89,0.00,,,0.00,Weather View 32 v70,2013-06-23 11:16:00,
2013-06-23 07:21:00,70.2,66.4,29.29,South,183,0.0,0.0,88,0.00,,,0.00,Weather View 32 v70,2013-06-23 11:21:00,
2013-06-23 07:26:00,70.2,66.4,29.29,South,183,0.0,0.0,88,0.00,,,0.00,Weather View 32 v70,2013-06-23 11:26:00,
2013-06-23 07:31:00,70.3,66.3,29.29,South,183,0.0,0.0,87,0.00,,,0.00,Weather View 32 v70,2013-06-23 11:31:00,
2013-06-23 07:36:00,70.5,66.4,29.29,South,183,0.0,0.0,87,0.00,,,0.00,Weather View 32 v70,2013-06-23 11:36:00,
2013-06-23 07:41:00,70.7,66.3,29.29,South,183,0.0,0.0,86,0.00,,,0.00,Weather View 32 v70,2013-06-23 11:41:00,
2013-06-23 07:46:00,70.9,66.1,29.29,South,183,0.0,0.0,85,0.00,,,0.00,Weather View 32 v70,2013-06-23 11:46:00,
2013-06-23 07:51:00,70.9,65.1,29.26,SSW,197,0.0,0.0,82,0.00,,,0.00,Weather View 32 v70,2013-06-23 11:51:00,
2013-06-23 07:56:00,71.1,64.6,29.26,South,184,0.0,0.0,80,0.00,,,0.00,Weather View 32 v70,2013-06-23 11:56:00,
2013-06-23 08:01:00,71.2,64.4,29.26,SSW,198,0.0,0.0,79,0.00,,,0.00,Weather View 32 v70,2013-06-23 12:01:00,
2013-06-23 08:06:00,71.4,63.8,29.29,SSW,201,0.0,0.0,77,0.00,,,0.00,Weather View 32 v70,2013-06-23 12:06:00,
2013-06-23 08:11:00,71.6,62.8,29.29,SW,232,0.0,0.0,74,0.00,,,0.00,Weather View 32 v70,2013-06-23 12:11:00,
2013-06-23 08:16:00,71.8,62.6,29.29,SSW,207,0.0,3.0,73,0.00,,,0.00,Weather View 32 v70,2013-06-23 12:16:00,
2013-06-23 08:21:00,71.8,62.2,29.29,SSW,206,0.0,3.0,72,0.00,,,0.00,Weather View 32 v70,2013-06-23 12:21:00,
2013-06-23 08:26:00,72.0,62.0,29.29,SSW,207,2.0,3.0,71,0.00,,,0.00,Weather View 32 v70,2013-06-23 12:26:00,
2013-06-23 08:31:00,72.1,61.8,29.29,SSW,205,0.0,3.0,70,0.00,,,0.00,Weather View 32 v70,2013-06-23 12:31:00,
2013-06-23 08:36:00,72.1,61.4,29.29,SSW,208,3.0,3.0,69,0.00,,,0.00,Weather View 32 v70,2013-06-23 12:36:00,
2013-06-23 08:41:00,72.1,61.4,29.29,SW,223,0.0,3.0,69,0.00,,,0.00,Weather View 32 v70,2013-06-23 12:41:00,
2013-06-23 08:46:00,72.3,61.1,29.29,South,180,0.0,3.0,68,0.00,,,0.00,Weather View 32 v70,2013-06-23 12:46:00,
2013-06-23 08:51:00,72.7,61.1,29.29,SSW,202,2.0,3.0,67,0.00,,,0.00,Weather View 32 v70,2013-06-23 12:51:00,
2013-06-23 08:56:00,73.0,60.1,29.29,South,187,3.0,5.0,64,0.00,,,0.00,Weather View 32 v70,2013-06-23 12:56:00,
2013-06-23 09:01:00,73.4,59.1,29.29,SSW,195,3.0,5.0,61,0.00,,,0.00,Weather View 32 v70,2013-06-23 13:01:00,
2013-06-23 09:06:00,73.8,59.4,29.29,SSW,197,3.0,5.0,61,0.00,,,0.00,Weather View 32 v70,2013-06-23 13:06:00,
2013-06-23 09:11:00,73.9,57.2,29.29,SSW,192,3.0,5.0,56,0.00,,,0.00,Weather View 32 v70,2013-06-23 13:11:00,
2013-06-23 09:16:00,74.3,57.5,29.29,SSW,198,4.0,5.0,56,0.00,,,0.00,Weather View 32 v70,2013-06-23 13:16:00,
2013-06-23 09:21:00,74.7,57.4,29.29,SSW,193,3.0,5.0,55,0.00,,,0.00,Weather View 32 v70,2013-06-23 13:21:00,
2013-06-23 09:26:00,75.0,56.1,29.29,SSW,199,3.0,5.0,52,0.00,,,0.00,Weather View 32 v70,2013-06-23 13:26:00,
2013-06-23 09:31:00,75.4,56.5,29.29,SSW,197,4.0,5.0,52,0.00,,,0.00,Weather View 32 v70,2013-06-23 13:31:00,
2013-06-23 09:36:00,75.9,58.0,29.29,SSW,205,3.0,5.0,54,0.00,,,0.00,Weather View 32 v70,2013-06-23 13:36:00,
2013-06-23 09:41:00,76.6,57.6,29.29,SW,216,0.0,5.0,52,0.00,,,0.00,Weather View 32 v70,2013-06-23 13:41:00,
2013-06-23 09:46:00,76.8,54.4,29.29,SSW,200,3.0,6.0,46,0.00,,,0.00,Weather View 32 v70,2013-06-23 13:46:00,
2013-06-23 09:51:00,77.2,55.9,29.29,SSW,205,3.0,6.0,48,0.00,,,0.00,Weather View 32 v70,2013-06-23 13:51:00,
2013-06-23 09:56:00,77.5,54.5,29.29,SW,214,4.0,6.0,45,0.00,,,0.00,Weather View 32 v70,2013-06-23 13:56:00,
2013-06-23 10:01:00,77.5,53.8,29.29,SSW,195,4.0,6.0,44,0.00,,,0.00,Weather View 32 v70,2013-06-23 14:01:00,
2013-06-23 10:06:00,77.7,54.6,29.29,SSW,199,3.0,6.0,45,0.00,,,0.00,Weather View 32 v70,2013-06-23 14:06:00,
2013-06-23 10:11:00,78.1,53.7,29.29,SSW,192,5.0,6.0,43,0.00,,,0.00,Weather View 32 v70,2013-06-23 14:11:00,
2013-06-23 10:16:00,78.4,54.6,29.29,SSW,197,3.0,6.0,44,0.00,,,0.00,Weather View 32 v70,2013-06-23 14:16:00,
2013-06-23 10:21:00,78.6,54.8,29.29,South,187,3.0,6.0,44,0.00,,,0.00,Weather View 32 v70,2013-06-23 14:21:00,
2013-06-23 10:26:00,79.2,54.7,29.29,SSW,195,4.0,6.0,43,0.00,,,0.00,Weather View 32 v70,2013-06-23 14:26:00,
2013-06-23 10:31:00,79.7,56.4,29.29,SSW,206,4.0,6.0,45,0.00,,,0.00,Weather View 32 v70,2013-06-23 14:31:00,
2013-06-23 10:36:00,79.7,53.8,29.29,SW,235,4.0,6.0,41,0.00,,,0.00,Weather View 32 v70,2013-06-23 14:36:00,
2013-06-23 10:41:00,79.9,54.7,29.29,South,183,4.0,6.0,42,0.00,,,0.00,Weather View 32 v70,2013-06-23 14:41:00,
2013-06-23 10:46:00,79.9,54.0,29.29,South,187,4.0,6.0,41,0.00,,,0.00,Weather View 32 v70,2013-06-23 14:46:00,
2013-06-23 10:51:00,79.9,52.6,29.29,South,189,3.0,6.0,39,0.00,,,0.00,Weather View 32 v70,2013-06-23 14:51:00,
2013-06-23 10:56:00,80.2,52.2,29.29,SSW,205,3.0,6.0,38,0.00,,,0.00,Weather View 32 v70,2013-06-23 14:56:00,
2013-06-23 11:01:00,80.6,54.0,29.29,SSW,207,3.0,6.0,40,0.00,,,0.00,Weather View 32 v70,2013-06-23 15:01:00,
2013-06-23 11:06:00,81.0,52.2,29.29,SSW,210,5.0,6.0,37,0.00,,,0.00,Weather View 32 v70,2013-06-23 15:06:00,
2013-06-23 11:11:00,81.3,52.5,29.29,South,189,3.0,6.0,37,0.00,,,0.00,Weather View 32 v70,2013-06-23 15:11:00,
2013-06-23 11:16:00,81.5,53.4,29.29,South,191,3.0,6.0,38,0.00,,,0.00,Weather View 32 v70,2013-06-23 15:16:00,
2013-06-23 11:21:00,81.0,51.4,29.29,SSW,202,4.0,6.0,36,0.00,,,0.00,Weather View 32 v70,2013-06-23 15:21:00,
2013-06-23 11:26:00,81.7,54.2,29.29,SW,233,4.0,6.0,39,0.00,,,0.00,Weather View 32 v70,2013-06-23 15:26:00,
2013-06-23 11:31:00,81.9,51.4,29.29,SW,230,2.0,6.0,35,0.00,,,0.00,Weather View 32 v70,2013-06-23 15:31:00,
2013-06-23 11:36:00,82.4,51.9,29.29,SW,216,4.0,6.0,35,0.00,,,0.00,Weather View 32 v70,2013-06-23 15:36:00,
2013-06-23 11:41:00,82.9,50.8,29.29,SSW,199,3.0,6.0,33,0.00,,,0.00,Weather View 32 v70,2013-06-23 15:41:00,
2013-06-23 11:46:00,81.7,51.3,29.29,SSW,211,3.0,6.0,35,0.00,,,0.00,Weather View 32 v70,2013-06-23 15:46:00,
2013-06-23 11:51:00,81.3,52.5,29.29,SSW,192,4.0,6.0,37,0.00,,,0.00,Weather View 32 v70,2013-06-23 15:51:00,
2013-06-23 12:10:00,83.5,52.1,29.29,WSW,251,0.0,6.0,34,0.00,,,0.00,Weather View 32 v70,2013-06-23 16:10:00,
2013-06-23 12:20:00,84.7,53.2,29.29,SSW,206,3.0,6.0,34,0.00,,,0.00,Weather View 32 v70,2013-06-23 16:20:00,
2013-06-23 12:30:00,84.4,52.0,29.29,SSW,197,4.0,6.0,33,0.00,,,0.00,Weather View 32 v70,2013-06-23 16:30:00,
2013-06-23 12:40:00,84.4,51.2,29.29,SW,224,5.0,6.0,32,0.00,,,0.00,Weather View 32 v70,2013-06-23 16:40:00,
2013-06-23 12:49:00,84.4,51.2,29.29,SW,224,5.0,6.0,32,0.00,,,0.00,Weather View 32 v70,2013-06-23 16:49:00,
2013-06-23 13:10:00,84.2,51.0,29.29,SW,228,4.0,6.0,32,0.00,,,0.00,Weather View 32 v70,2013-06-23 17:10:00,
2013-06-23 13:20:00,85.6,52.3,29.29,SSW,192,3.0,6.0,32,0.00,,,0.00,Weather View 32 v70,2013-06-23 17:20:00,
2013-06-23 13:30:00,86.4,52.1,29.29,SSW,204,4.0,6.0,31,0.00,,,0.00,Weather View 32 v70,2013-06-23 17:30:00,
2013-06-23 13:40:00,87.1,52.7,29.26,SSW,207,3.0,6.0,31,0.00,,,0.00,Weather View 32 v70,2013-06-23 17:40:00,
2013-06-23 13:50:00,87.3,51.9,29.26,SSW,209,3.0,6.0,30,0.00,,,0.00,Weather View 32 v70,2013-06-23 17:50:00,
2013-06-23 14:00:00,86.2,51.0,29.26,SSW,209,4.0,6.0,30,0.00,,,0.00,Weather View 32 v70,2013-06-23 18:00:00,
2013-06-23 14:10:00,86.9,52.5,29.26,SSW,197,4.0,6.0,31,0.00,,,0.00,Weather View 32 v70,2013-06-23 18:10:00,
2013-06-23 14:20:00,87.1,51.8,29.26,SSW,192,5.0,6.0,30,0.00,,,0.00,Weather View 32 v70,2013-06-23 18:20:00,
2013-06-23 14:30:00,86.5,50.4,29.26,SSW,201,3.0,6.0,29,0.00,,,0.00,Weather View 32 v70,2013-06-23 18:30:00,
2013-06-23 14:40:00,86.2,48.2,29.26,SE,139,4.0,8.0,27,0.00,,,0.00,Weather View 32 v70,2013-06-23 18:40:00,
2013-06-23 14:51:00,86.7,49.6,29.26,SSW,197,2.0,8.0,28,0.00,,,0.00,Weather View 32 v70,2013-06-23 18:51:00,
2013-06-23 15:00:00,87.3,48.1,29.26,SSW,205,3.0,8.0,26,0.00,,,0.00,Weather View 32 v70,2013-06-23 19:00:00,
2013-06-23 15:10:00,86.9,49.8,29.26,SSW,193,3.0,8.0,28,0.00,,,0.00,Weather View 32 v70,2013-06-23 19:10:00,
2013-06-23 15:20:00,86.5,50.4,29.26,SSW,195,3.0,8.0,29,0.00,,,0.00,Weather View 32 v70,2013-06-23 19:20:00,
2013-06-23 15:30:00,86.5,50.4,29.26,SSW,201,3.0,8.0,29,0.00,,,0.00,Weather View 32 v70,2013-06-23 19:30:00,
2013-06-23 15:40:00,86.9,49.8,29.26,SSW,207,0.0,6.0,28,0.00,,,0.00,Weather View 32 v70,2013-06-23 19:40:00,
2013-06-23 15:50:00,86.7,50.6,29.26,SSW,196,3.0,6.0,29,0.00,,,0.00,Weather View 32 v70,2013-06-23 19:50:00,
2013-06-23 16:00:00,86.9,49.8,29.26,SSW,193,4.0,6.0,28,0.00,,,0.00,Weather View 32 v70,2013-06-23 20:00:00,
2013-06-23 16:10:00,86.7,49.6,29.23,SSW,196,3.0,6.0,28,0.00,,,0.00,Weather View 32 v70,2013-06-23 20:10:00,
2013-06-23 16:20:00,86.9,50.7,29.23,South,191,0.0,6.0,29,0.00,,,0.00,Weather View 32 v70,2013-06-23 20:20:00,
2013-06-23 16:30:00,86.5,49.5,29.23,South,186,3.0,6.0,28,0.00,,,0.00,Weather View 32 v70,2013-06-23 20:30:00,
2013-06-23 16:40:00,86.2,50.1,29.23,SSW,207,5.0,6.0,29,0.00,,,0.00,Weather View 32 v70,2013-06-23 20:40:00,
2013-06-23 16:50:00,86.4,51.2,29.23,SSW,204,3.0,6.0,30,0.00,,,0.00,Weather View 32 v70,2013-06-23 20:50:00,
2013-06-23 17:00:00,86.2,51.0,29.23,SW,216,3.0,7.0,30,0.00,,,0.00,Weather View 32 v70,2013-06-23 21:00:00,
2013-06-23 17:10:00,86.0,49.9,29.23,South,191,2.0,7.0,29,0.00,,,0.00,Weather View 32 v70,2013-06-23 21:10:00,
2013-06-23 17:20:00,86.0,49.9,29.23,WSW,241,3.0,7.0,29,0.00,,,0.00,Weather View 32 v70,2013-06-23 21:20:00,
2013-06-23 17:30:00,86.0,49.9,29.23,SSW,201,3.0,7.0,29,0.00,,,0.00,Weather View 32 v70,2013-06-23 21:30:00,
2013-06-23 17:40:00,85.8,49.8,29.21,SW,216,3.0,7.0,29,0.00,,,0.00,Weather View 32 v70,2013-06-23 21:40:00,
2013-06-23 17:50:00,85.6,49.6,29.21,WSW,252,0.0,8.0,29,0.00,,,0.00,Weather View 32 v70,2013-06-23 21:50:00,
2013-06-23 18:00:00,85.8,50.7,29.21,SW,218,0.0,8.0,30,0.00,,,0.00,Weather View 32 v70,2013-06-23 22:00:00,
2013-06-23 18:10:00,85.6,50.5,29.21,WSW,238,2.0,8.0,30,0.00,,,0.00,Weather View 32 v70,2013-06-23 22:10:00,
2013-06-23 18:20:00,85.3,49.3,29.21,SSW,198,3.0,8.0,29,0.00,,,0.00,Weather View 32 v70,2013-06-23 22:20:00,
2013-06-23 18:30:00,85.3,50.2,29.21,SSW,193,0.0,8.0,30,0.00,,,0.00,Weather View 32 v70,2013-06-23 22:30:00,
2013-06-23 18:40:00,85.1,49.2,29.21,SW,214,3.0,8.0,29,0.00,,,0.00,Weather View 32 v70,2013-06-23 22:40:00,
2013-06-23 18:50:00,85.1,50.1,29.21,South,191,4.0,5.0,30,0.00,,,0.00,Weather View 32 v70,2013-06-23 22:50:00,
2013-06-23 19:00:00,84.7,51.5,29.21,SSW,205,0.0,5.0,32,0.00,,,0.00,Weather View 32 v70,2013-06-23 23:00:00,
2013-06-23 19:10:00,84.7,51.5,29.21,SW,221,0.0,5.0,32,0.00,,,0.00,Weather View 32 v70,2013-06-23 23:10:00,
2013-06-23 19:20:00,84.4,51.2,29.21,SSW,204,0.0,5.0,32,0.00,,,0.00,Weather View 32 v70,2013-06-23 23:20:00,
2013-06-23 19:30:00,84.0,51.7,29.21,South,189,0.0,5.0,33,0.00,,,0.00,Weather View 32 v70,2013-06-23 23:30:00,
2013-06-23 19:40:00,83.7,51.4,29.21,South,189,0.0,5.0,33,0.00,,,0.00,Weather View 32 v70,2013-06-23 23:40:00,
2013-06-23 19:50:00,83.3,51.1,29.21,SSW,212,0.0,4.0,33,0.00,,,0.00,Weather View 32 v70,2013-06-23 23:50:00,
2013-06-23 20:00:00,82.9,50.8,29.21,South,190,0.0,3.0,33,0.00,,,0.00,Weather View 32 v70,2013-06-24 00:00:00,
2013-06-23 20:10:00,82.6,51.3,29.21,South,190,0.0,3.0,34,0.00,,,0.00,Weather View 32 v70,2013-06-24 00:10:00,
2013-06-23 20:20:00,82.2,52.5,29.21,South,190,0.0,3.0,36,0.00,,,0.00,Weather View 32 v70,2013-06-24 00:20:00,
2013-06-23 20:30:00,81.7,52.0,29.21,South,190,0.0,3.0,36,0.00,,,0.00,Weather View 32 v70,2013-06-24 00:30:00,
2013-06-23 20:40:00,81.1,53.8,29.21,South,190,0.0,3.0,39,0.00,,,0.00,Weather View 32 v70,2013-06-24 00:40:00,
2013-06-23 20:50:00,80.6,54.0,29.21,South,190,0.0,3.0,40,0.00,,,0.00,Weather View 32 v70,2013-06-24 00:50:00,
2013-06-23 20:55:00,80.6,54.0,29.21,South,190,0.0,3.0,40,0.00,,,0.00,Weather View 32 v70,2013-06-24 00:55:00,
2013-06-23 21:10:00,78.3,57.5,29.21,South,190,0.0,0.0,49,0.00,,,0.00,Weather View 32 v70,2013-06-24 01:10:00,
2013-06-23 21:20:00,76.8,58.3,29.21,South,190,0.0,0.0,53,0.00,,,0.00,Weather View 32 v70,2013-06-24 01:20:00,
2013-06-23 21:30:00,76.6,57.6,29.21,South,190,0.0,0.0,52,0.00,,,0.00,Weather View 32 v70,2013-06-24 01:30:00,
2013-06-23 21:40:00,76.6,56.0,29.21,South,190,0.0,0.0,49,0.00,,,0.00,Weather View 32 v70,2013-06-24 01:40:00,
2013-06-23 21:50:00,76.8,56.1,29.21,South,190,0.0,0.0,49,0.00,,,0.00,Weather View 32 v70,2013-06-24 01:50:00,
2013-06-23 21:56:00,76.8,56.1,29.21,South,190,0.0,0.0,49,0.00,,,0.00,Weather View 32 v70,2013-06-24 01:56:00,
2013-06-23 22:10:00,76.6,56.0,29.21,South,190,0.0,0.0,49,0.00,,,0.00,Weather View 32 v70,2013-06-24 02:10:00,
2013-06-23 22:20:00,77.0,55.7,29.21,South,190,0.0,0.0,48,0.00,,,0.00,Weather View 32 v70,2013-06-24 02:20:00,
2013-06-23 22:30:00,77.2,55.3,29.23,SSW,209,3.0,3.0,47,0.00,,,0.00,Weather View 32 v70,2013-06-24 02:30:00,
2013-06-23 22:40:00,77.4,54.3,29.23,SSW,205,3.0,4.0,45,0.00,,,0.00,Weather View 32 v70,2013-06-24 02:40:00,
2013-06-23 22:50:00,77.4,54.3,29.23,SSW,205,0.0,4.0,45,0.00,,,0.00,Weather View 32 v70,2013-06-24 02:50:00,
2013-06-23 22:57:00,77.4,54.3,29.23,SSW,205,0.0,4.0,45,0.00,,,0.00,Weather View 32 v70,2013-06-24 02:57:00,
2013-06-23 23:10:00,77.0,54.0,29.23,SSW,205,0.0,4.0,45,0.00,,,0.00,Weather View 32 v70,2013-06-24 03:10:00,
2013-06-23 23:20:00,76.8,54.4,29.23,SSW,205,0.0,4.0,46,0.00,,,0.00,Weather View 32 v70,2013-06-24 03:20:00,
2013-06-23 23:30:00,76.5,54.1,29.23,SSW,205,0.0,4.0,46,0.00,,,0.00,Weather View 32 v70,2013-06-24 03:30:00,
2013-06-23 23:40:00,76.1,54.9,29.23,SSW,205,0.0,3.0,48,0.00,,,0.00,Weather View 32 v70,2013-06-24 03:40:00,
2013-06-23 23:50:00,75.7,55.2,29.23,South,181,0.0,3.0,49,0.00,,,0.00,Weather View 32 v70,2013-06-24 03:50:00,
2013-06-23 23:58:00,75.7,55.2,29.23,South,181,0.0,3.0,49,0.00,,,0.00,Weather View 32 v70,2013-06-24 03:58:00,